Provincetown, Massachusetts, United States (02657)
Lat: 42.06N, Lon: 70.18W
Wx Zone: MAZ022
Local Info
Past Weather Observations for Today

NOTE: This archive is for the closest National Weather Service station to Provincetown. Information may differ from the station used for current weather conditions.

Click here for Long-term Archive

Time Weather Temperature Dewpoint Humidity Pressure Winds Precip Visibility
20:56
Clear
61°F / 16°C 43°F / 6°C 52% 30.01 in
(1016 mb)
NW 10.4 mph
(NW 17 kph)
- 10SM
19:56
Clear
61°F / 16°C 43°F / 6°C 52% 29.98 in
(1015 mb)
NW 11.5 mph
(NW 19 kph)
- 10SM
18:56
Clear
63°F / 17°C 43°F / 6°C 49% 29.95 in
(1014 mb)
NW 9.2 mph
(NW 15 kph)
- 10SM
17:56
Clear
66°F / 19°C 45°F / 7°C 46% 29.89 in
(1012 mb)
W 10.4 mph
(W 17 kph)
- 10SM
16:56
Clear
72°F / 22°C 45°F / 7°C 38% 29.86 in
(1011 mb)
W 13.8 mph
(W 22 kph)
- 10SM
15:56
Clear
73°F / 23°C 43°F / 6°C 33% 29.8 in
(1009 mb)
SSW 16.1 mph
(SSW 26 kph)
- 10SM
14:56
Clear
75°F / 24°C 43°F / 6°C 31% 29.8 in
(1009 mb)
W 16.1 mph
(W 26 kph)
- 10SM
13:56
Clear
77°F / 25°C 46°F / 8°C 34% 29.77 in
(1008 mb)
SSW 19.6 mph
(SSW 32 kph)
- 10SM
12:56
Clear
75°F / 24°C 50°F / 10°C 41% 29.74 in
(1007 mb)
SSW 15 mph
(SSW 24 kph)
- 10SM
11:56
Clear
75°F / 24°C 52°F / 11°C 44% 29.74 in
(1007 mb)
W 17.3 mph
(W 28 kph)
- 10SM
10:56
Clear
75°F / 24°C 54°F / 12°C 47% 29.74 in
(1007 mb)
SSW 19.6 mph
(SSW 32 kph)
- 10SM
09:56
Clear
73°F / 23°C 54°F / 12°C 50% 29.74 in
(1007 mb)
SSW 13.8 mph
(SSW 22 kph)
- 10SM
08:56
Clear
72°F / 22°C 54°F / 12°C 53% 29.71 in
(1006 mb)
SSW 15 mph
(SSW 24 kph)
- 10SM
07:56
Clear
70°F / 21°C 55°F / 13°C 60% 29.71 in
(1006 mb)
SSW 12.7 mph
(SSW 20 kph)
- 10SM
06:56
Clear
70°F / 21°C 61°F / 16°C 73% 29.68 in
(1005 mb)
W 9.2 mph
(W 15 kph)
- 10SM
05:56
Clear
66°F / 19°C 64°F / 18°C 94% 29.65 in
(1004 mb)
SSW 6.9 mph
(SSW 11 kph)
- 10SM
05:23
Partly Cloudy
68°F / 20°C 64°F / 18°C 88% 29.62 in
(1003 mb)
SSW 8.1 mph
(SSW 13 kph)
- 10SM
04:56
Mostly Cloudy
68°F / 20°C 66°F / 19°C 94% 29.62 in
(1003 mb)
SW 12.7 mph
(SW 20 kph)
- 9SM
04:53
Mostly Cloudy
68°F / 20°C 66°F / 19°C 94% 29.62 in
(1003 mb)
SW 11.5 mph
(SW 19 kph)
- 9SM
04:22
Partly Cloudy
68°F / 20°C 66°F / 19°C 94% 29.59 in
(1002 mb)
SW 8.1 mph
(SW 13 kph)
- 10SM
03:56
Partly Cloudy
70°F / 21°C 66°F / 19°C 88% 29.59 in
(1002 mb)
SW 11.5 mph
(SW 19 kph)
- 10SM
03:45
Partly Cloudy
70°F / 21°C 66°F / 19°C 88% 29.59 in
(1002 mb)
SW 11.5 mph
(SW 19 kph)
- 10SM
02:56
Overcast
70°F / 21°C 66°F / 19°C 88% 29.56 in
(1001 mb)
SSW 12.7 mph
(SSW 20 kph)
- 10SM
01:56
Overcast
68°F / 20°C 64°F / 18°C 88% 29.56 in
(1001 mb)
SW 13.8 mph
(SW 22 kph)
- 10SM
01:11
Mostly Cloudy
68°F / 20°C 66°F / 19°C 94% 29.53 in
(1000 mb)
SSW 12.7 mph
(SSW 20 kph)
- 10SM
00:56
Partly Cloudy
68°F / 20°C 66°F / 19°C 94% 29.53 in
(1000 mb)
SSW 10.4 mph
(SSW 17 kph)
- 10SM
Time Weather Temperature Dewpoint Humidity Pressure Winds Precip Visibility


Weather for websites

WeatherForYou.com, LLC is not responsible for any damages or problems caused by this service. Current weather conditions are obtained from the closest station including government and personal stations which may have varying degrees of accuracy. Weather forecasts are derived from the NOAA NDFD. Like all things, this site belongs to Jesus Christ... He just trusts me to maintain it. If you have any questions or comments email webmaster@weatherforyou.com

Copyright © 2014, WeatherForYou.com LLC. All rights reserved.